Montpelier, VT

6:18 PM EST on November 11, 2019 (GMT -0500)
Knapp State

Weather History for KMPV - August, 2019

Change the Weather History Date:

Sunday, August 18, 2019

  Actual Average Record
Temperature  
Mean Temperature 70 °F 65 °F  
Max Temperature 82 °F 77 °F 89 °F (2009)
Min Temperature 59 °F 54 °F 41 °F (1953)
Degree Days  
Heating Degree Days 0 2  
Month to date heating degree days 20 32  
Since 1 June heating degree days 173 193  
Since 1 July heating degree days 29 72  
Cooling Degree Days 6 2  
Month to date cooling degree days 33 52  
Year to date cooling degree days 191 220  
Since 1 June cooling degree days 190 210  
Growing Degree Days 20 (Base 50)    
Moisture  
Dew Point 63 °F    
Average Humidity 86    
Maximum Humidity 100    
Minimum Humidity 56    
Precipitation  
Precipitation 0.04 in 0.14 in 1.54 in (1986)
Month to date precipitation 3.11 2.62  
Year to date precipitation 33.66 23.41  
Sea Level Pressure  
Sea Level Pressure 30.04 in    
Wind  
Wind Speed 2 mph ()    
Max Wind Speed 9 mph    
Max Gust Speed 13 mph    
Visibility 8.3 miles    
Events      
T = Trace of Precipitation, MM = Missing Value Source: Averaged Metar Reports

Daily Weather History Graph

Daily Weather History Graph

Search for Another Location

Airport or City:

Astronomy

Aug. 18, 2019 Rise Set
Actual Time 5:56 AM EDT 7:50 PM EDT
Civil Twilight 5:25 AM EDT 8:21 PM EDT
Nautical Twilight 4:47 AM EDT 8:59 PM EDT
Astronomical Twilight 4:05 AM EDT 9:40 PM EDT
Moon 9:38 PM EDT (8/18) 8:43 AM EDT (8/18)
Length of Visible Light 14h 55m
Length of Day
13h 53m
Waning Gibbous, 91% of the Moon is Illuminated
Aug 18
Waning Gibbous
Aug 23
Last Quarter
Aug 30
New
Sep 5
First Quarter
Sep 14
Full

Hourly Weather History & Observations

Time (EDT) Temp. Heat Index Dew Point Humidity Pressure Visibility Wind Dir Wind Speed Gust Speed Precip Events Conditions
12:51 AM 66.0 °F - 64.0 °F 93% 30.03 in 10.0 mi SSE 5.8 mph - N/A   Overcast
1:51 AM 64.9 °F - 64.0 °F 97% 30.04 in 10.0 mi North 4.6 mph - N/A   Overcast
2:51 AM 64.9 °F - 63.0 °F 93% 30.04 in 10.0 mi SSE 5.8 mph - N/A   Mostly Cloudy
3:51 AM 62.1 °F - 62.1 °F 100% 30.03 in 8.0 mi Calm Calm - N/A   Clear
4:15 AM 62.1 °F - 61.0 °F 96% 30.04 in 10.0 mi Calm Calm - N/A   Partly Cloudy
4:51 AM 60.1 °F - 60.1 °F 100% 30.03 in 4.0 mi Calm Calm - N/A   Clear
5:23 AM 60.1 °F - 60.1 °F 100% 30.04 in 9.0 mi Calm Calm - N/A   Scattered Clouds
5:32 AM 59.0 °F - 59.0 °F 100% 30.04 in 8.0 mi Calm Calm - N/A   Mostly Cloudy
5:51 AM 61.0 °F - 60.1 °F 97% 30.04 in 10.0 mi Calm Calm - N/A   Overcast
6:44 AM 62.1 °F - 62.1 °F 100% 30.06 in 3.0 mi South 4.6 mph - N/A   Overcast
6:51 AM 62.1 °F - 62.1 °F 100% 30.06 in 2.5 mi SSW 4.6 mph - N/A   Overcast
7:00 AM 62.1 °F - 62.1 °F 100% 30.06 in 1.5 mi Calm Calm - N/A   Overcast
7:09 AM 62.1 °F - 62.1 °F 100% 30.07 in 2.0 mi SW 4.6 mph - N/A   Overcast
7:34 AM 62.1 °F - 62.1 °F 100% 30.08 in 1.8 mi Variable 3.5 mph - N/A   Overcast
7:51 AM 62.1 °F - 62.1 °F 100% 30.08 in 2.0 mi Calm Calm - N/A   Overcast
8:02 AM 62.1 °F - 62.1 °F 100% 30.08 in 5.0 mi Calm Calm - N/A   Overcast
8:51 AM 64.0 °F - 63.0 °F 96% 30.08 in 10.0 mi Calm Calm - N/A   Overcast
9:51 AM 64.9 °F - 64.0 °F 97% 30.09 in 10.0 mi WNW 4.6 mph - N/A   Overcast
10:19 AM 68.0 °F - 64.9 °F 90% 30.09 in 10.0 mi Calm Calm - N/A   Overcast
10:51 AM 70.0 °F - 66.9 °F 90% 30.08 in 10.0 mi Calm Calm - N/A   Partly Cloudy
11:38 AM 73.0 °F - 64.9 °F 76% 30.07 in 10.0 mi Calm Calm - N/A   Mostly Cloudy
11:51 AM 73.0 °F - 64.9 °F 76% 30.06 in 10.0 mi Variable 3.5 mph - N/A   Mostly Cloudy
12:07 PM 73.9 °F - 66.0 °F 76% 30.06 in 10.0 mi North 3.5 mph - N/A   Mostly Cloudy
12:16 PM 73.9 °F - 64.9 °F 73% 30.06 in 10.0 mi Calm Calm - N/A   Mostly Cloudy
12:23 PM 73.0 °F - 64.0 °F 73% 30.05 in 10.0 mi WSW 3.5 mph - N/A   Mostly Cloudy
12:51 PM 77.0 °F - 64.9 °F 66% 30.03 in 10.0 mi Variable 3.5 mph - N/A   Mostly Cloudy
1:51 PM 79.0 °F - 64.0 °F 60% 30.04 in 10.0 mi Variable 3.5 mph - N/A   Partly Cloudy
2:51 PM 80.1 °F 81.9 °F 64.9 °F 60% 30.03 in 10.0 mi South 5.8 mph - N/A   Partly Cloudy
3:51 PM 80.1 °F 81.9 °F 64.9 °F 60% 30.01 in 10.0 mi Variable 4.6 mph - N/A   Partly Cloudy
4:51 PM 79.0 °F - 62.1 °F 56% 30.02 in 10.0 mi Variable 4.6 mph - N/A   Mostly Cloudy
5:51 PM 78.1 °F - 63.0 °F 60% 30.01 in 10.0 mi South 4.6 mph - N/A   Mostly Cloudy
6:51 PM 75.0 °F - 62.1 °F 64% 30.00 in 10.0 mi SSW 4.6 mph - N/A   Mostly Cloudy
7:51 PM 70.0 °F - 64.0 °F 81% 30.00 in 10.0 mi South 3.5 mph - N/A   Clear
8:51 PM 69.1 °F - 66.0 °F 90% 29.99 in 10.0 mi Calm Calm - N/A   Overcast
9:51 PM 70.0 °F - 66.0 °F 87% 29.99 in 10.0 mi Calm Calm - N/A   Overcast
10:51 PM 68.0 °F - 66.0 °F 93% 29.99 in 10.0 mi Calm Calm - N/A   Mostly Cloudy
11:51 PM 68.0 °F - 66.0 °F 93% 29.97 in 10.0 mi Calm Calm - 0.04 in   Overcast